sat.trackr.live / text

‹ back to catalog

LEMUR-2-SONNENBLUME

NORAD 67367 · 2026-004E

PAYLOAD ACTIVE UNKNOWN

§ Identity

Operator
Country
US
Launch date
2026-01-11
Launch site
AFWTR
Launch vehicle
Mass (kg)
RCS (m²)

Purposes: earth_obs

External: N2YO · Heavens-Above · Gunter

§ Orbital elements

Epoch: 2026-09-19T23:10:59.212704Z

Period
96.73 min
Inclination
97.8060°
Eccentricity
0.0007704
Mean motion
14.88723434 rev/d
Perigee alt
596.5 km
Apogee alt
607.3 km
Semi-major
6,980.1 km
B*
1.8240e-4
RAAN
260.0691°
Arg perigee
179.5133°
Mean anomaly
180.6093°
Rev number
3,739

§ Raw data

LEMUR-2-SONNENBLUME1 67367U 26004E   26262.96596311  .00001650  00000+0  18240-3 0  99982 67367  97.8060 260.0691 0007704 179.5133 180.6093 14.88723434 37395

JSON: /api/v1/satellites/67367 · /tle

For live sub-satellite position, see the globe view (requires WebGL).

§ Visibility from observer

Set your observer location to see the next 7 days of passes ≥ 10°. The values pass through the URL so the page stays shareable.

No JS? Fill the form by hand. The geolocation button needs JavaScript.